Regional Weather Roundup
Issued by NWS

Home | Current Version | Previous Version | Graphics & Text | Print | Product List | Glossary On
Versions: 1 2 3 4 5 6 7 8 9 10 11 12 13 14 15 16 17 18 19 20 21 22 23 24 25 26 27 28 29 30 31 32 33 34 35 36 37 38 39 40 41 42 43 44 45 46 47 48 49 50
000
ASUS43 KLMK 281110
RWRKY
KENTUCKY REGIONAL WEATHER ROUNDUP
NATIONAL WEATHER SERVICE LOUISVILLE KY
600 AM EST WED JAN 28 2015

NOTE "FAIR" INDICATES FEW OR NO CLOUDS BELOW 12,000 FEET
WITH NO SIGNIFICANT WEATHER AND/OR OBSTRUCTIONS TO VISIBILITY.

KYZ001>023-026-027-061>063-070>075-281200-
WESTERN AND SOUTH CENTRAL KENTUCKY

CITY           SKY/WX    TMP DP  RH WIND       PRES   REMARKS
PADUCAH        CLEAR     24  22  91 E5        30.28R WCI  18
HENDERSON      MOCLDY    30  23  74 E7        30.29F WCI  23
OWENSBORO      CLOUDY    31  24  75 E9        30.31R WCI  23
HOPKINSVILLE   CLEAR     31  28  90 E6        30.27S WCI  25
BOWLING GREEN  CLEAR     26  17  68 NE6       30.32R WCI  19
GLASGOW        PTCLDY    22  17  81 CALM      30.31R
$$

KYZ024-025-028>034-038-045-046-053-281200-
NORTH CENTRAL KENTUCKY

CITY           SKY/WX    TMP DP  RH WIND       PRES   REMARKS
LOUISVILLE/SDF CLEAR     21  13  71 CALM      30.34R
LOUISVILLE/LOU CLEAR     20  13  74 CALM      30.34R
FORT KNOX      CLEAR     19  14  82 NE5       30.29R WCI  12
$$

KYZ035>037-039>044-047>052-055>060-089>105-281200-
NORTHEAST KENTUCKY

CITY           SKY/WX    TMP DP  RH WIND       PRES   REMARKS
LEXINGTON      FAIR      15  11  83 NE3       30.31R
COVINGTON      FAIR      17  12  80 CALM      30.31R HAZE
FRANKFORT      CLEAR     14   9  80 CALM      30.31R
$$

KYZ054-064>069-076>088-106>120-281200-
SOUTHEAST KENTUCKY

CITY           SKY/WX    TMP DP  RH WIND       PRES   REMARKS
JACKSON        CLEAR     16  10  77 CALM      30.27R
LONDON         CLEAR     19  11  70 CALM      30.28R
SOMERSET       CLEAR     18  14  86 CALM      30.31R
MIDDLESBORO    CLEAR     18  17  94 CALM      30.28R
MONTICELLO     SUNNY     18  15  88 NE5       30.32R WCI  11
$$




USA.gov is the U.S. government's official web portal to all federal, state and local government web resources and services.